Location: North Runcton
(52.7000°N, 0.4333°E)
Time: 17:09:30
(UTC+00:00)

Cosmos 1125 Rocket - Pass Details

Date: 19 May 2025
Orbit: 753 x 776 km, 74.0° (Epoch: 12 June)

Event Time Altitude Azimuth Distance (km) Brightness Sun altitude
Rises 21:01:01 0° 333° (NNW) 3,269 8.7 -8.2°
Reaches altitude 10° 21:03:25 10° 331° (NNW) 2,338 7.6 -8.4°
Maximum altitude 21:08:42 73° 248° (WSW) 816 3.7 -8.9°
Drops below altitude 10° 21:13:58 10° 165° (SSE) 2,318 5.4 -9.4°
Enters shadow 21:14:03 10° 165° (SSE) 2,351 5.4 -9.4°
